Zurück zum Katalog

BREEZE-M DEB

AktivHEO
NORAD 32028·DEBRIS·🇷🇺 Russia

Gestartet Feb 28, 2006 von Baikonur Cosmodrome

Loading…

Nächste Überflüge (nächste 24 Stunden)

TLE

AktuellSource: Space-Track

Epoche: Sep 10, 2026, 02:44 UTC

1 32028U 06006F   26253.11430210  .00003578  00000-0  67975-2 0  9996
2 32028  51.7188 191.7566 4957808 352.6987   2.1017  5.42461732369949

Verfolge BREEZE-M DEB in Echtzeit mit AllMySat

Download on the App Store